Location: Babice
(50.3480°N, 22.9363°E)
Time: 12:37:04
(UTC+00:00)

COSMOS 2406 - Pass Details

Date: 14 July 2020
Orbit: 844 x 863 km, 71.0° (Epoch: 07 August)

Event Time Altitude Azimuth Distance (km) Brightness Sun altitude
Exits shadow 00:49:37 16° 219° (SW) 2,097 4.6 -12.0°
Maximum altitude 00:54:16 71° 302° (WNW) 916 3.4 -11.7°
Drops below altitude 10° 01:00:03 10° 26° (NNE) 2,510 7.2 -11.1°
Sets 01:02:32 0° 29° (NNE) 3,449 8.6 -10.9°
